www.pogodaiklimat.ru

Погода и климат >> Архив погоды >> Япония >> Китами Сачи


ПОГОДА в Китами Сачи

  • Прогноз погоды в Китами Сачи
  • Монитор погоды в Китами Сачи

АРХИВ ПОГОДЫ в Китами Сачи

Время (UTC), дата Ветер
(напр.,м/с)
 
Видим.   Явления Облачность Т
(С)
Тd
(С)
f
(%)
Тe
(С)
Тes
(С)
Комфортность P
(гПа)
Po
(гПа)
Тmin
(С)
Tmax
(С)
R
(мм)
R24
(мм)
S
(см)
22 11.06 СВ 1 4400 м слаб. дождь н/о +11.1 +11.0 99 +11 +11 1012.1 1011.1
23 11.06 В 2 7000 м слаб. дождь н/о +11.4 +11.0 97 +10 +10 1012.3 1011.3
00 12.06 В 3 5000 м слаб. дождь н/о +11.5 +11.2 98 +10 +10 1011.8 1010.8 +10.6 0.5
01 12.06 В 2 8000 м в посл. час дождь н/о +11.6 +10.8 95 +10 +10 1011.6 1010.6
02 12.06 В 2 12 км н/о +11.9 +11.0 94 +11 +11 1011.5 1010.5
03 12.06 СВ 2 9000 м слаб. дождь н/о +11.7 +10.8 94 +11 +11 1011.6 1010.6
04 12.06 С 3 12 км слаб. дождь н/о +11.9 +10.7 92 +10 +10 1011.2 1010.2
05 12.06 СВ 1 11 км в посл. час дождь н/о +12.0 +10.9 93 +12 +12 1010.7 1009.7
06 12.06 СВ 2 14 км слаб. дождь н/о +12.0 +10.1 88 +11 +11 1010.5 1009.5 0.0
07 12.06 СВ 3 10 км в посл. час дождь н/о +12.1 +10.7 91 +11 +11 1010.0 1009.0
08 12.06 СВ 3 8000 м дымка н/о +11.7 +10.6 93 +10 +10 1010.0 1009.0
09 12.06 СВ 3 3000 м слаб. дождь н/о +11.5 +11.0 97 +10 +10 1010.3 1009.3
10 12.06 СВ 4 6000 м слаб. дождь н/о +11.1 +10.8 98 +9 +9 1010.4 1009.4
11 12.06 СВ 3 4000 м слаб. дождь н/о +10.8 +10.5 98 +9 +9 1010.7 1009.7
12 12.06 В 3 2200 м слаб. дождь н/о +10.6 +10.5 99 +9 +9 1010.6 1009.6 +12.7 0.5
13 12.06 СВ 2 4300 м слаб. дождь н/о +10.4 +10.3 99 +9 +9 1010.5 1009.5
14 12.06 СВ 2 20 км слаб. дождь н/о +10.5 +10.2 98 +9 +9 1010.3 1009.3
15 12.06 СВ 2 4200 м слаб. дождь н/о +10.6 +10.3 98 +9 +9 1009.9 1008.9
16 12.06 С 3 9000 м слаб. дождь н/о +10.5 +10.2 98 +8 +8 1010.0 1009.0
17 12.06 СВ 3 1200 м слаб. дождь н/о +10.4 +10.1 98 +8 +8 1009.7 1008.7
18 12.06 СВ 3 1500 м слаб. дождь н/о +10.3 +10.2 99 +8 +8 1010.0 1009.0 1
19 12.06 С 4 3000 м слаб. дождь н/о +9.9 +9.8 99 +7 +7 1009.9 1008.9
20 12.06 С 3 2300 м слаб. дождь н/о +9.9 +9.8 99 +7 +7 1010.4 1009.4
21 12.06 С 2 7000 м в посл. час дождь н/о +9.9 +9.6 98 +8 +8 1010.5 1009.5
22 12.06 С 3 3000 м слаб. дождь н/о +10.1 +9.7 97 +8 +8 1011.0 1010.0
23 12.06 С 3 20 км в посл. час дождь н/о +10.4 +9.8 96 +8 +8 1011.2 1010.2
00 13.06 С 3 3700 м слаб. дождь н/о +10.8 +10.4 97 +9 +9 1011.3 1010.3 +9.8 2
01 13.06 С 3 20 км в посл. час дождь н/о +11.2 +10.3 94 +9 +9 1011.5 1010.5
02 13.06 С 3 20 км н/о +12.4 +11.0 91 +11 +11 1011.3 1010.3
03 13.06 СВ 3 20 км {дождь} н/о +13.3 +10.5 83 +12 +12 1010.8 1009.8
04 13.06 СВ 3 20 км н/о +12.8 +10.0 83 +12 +12 1011.2 1010.2
05 13.06 СВ 2 20 км н/о +12.6 +9.6 82 +12 +12 1011.0 1010.0
06 13.06 СВ 2 20 км {дождь} н/о +12.0 +9.4 84 +11 +11 1010.9 1009.9 0.0
07 13.06 СВ 2 20 км в посл. час дождь н/о +11.8 +9.5 86 +11 +11 1011.3 1010.3
08 13.06 В 2 20 км в посл. час дождь н/о +11.4 +9.5 88 +11 +11 1011.2 1010.2
09 13.06 В 2 6000 м слаб. дождь н/о +11.1 +10.3 95 +10 +10 1011.8 1010.8
10 13.06 Ю 2 20 км в посл. час дождь н/о +11.1 +10.2 94 +10 +10 1011.9 1010.9
11 13.06 ЮВ 2 20 км н/о +11.3 +10.1 92 +10 +10 1012.3 1011.3
12 13.06 ЮВ 3 20 км {дождь} н/о +11.6 +10.4 92 +10 +10 1012.2 1011.2 +13.5 0.0
13 13.06 ЮЗ 2 20 км н/о +11.2 +10.3 94 +10 +10 1011.9 1010.9
14 13.06 Ю 2 20 км н/о +11.3 +10.2 93 +10 +10 1011.6 1010.6
15 13.06 Ю 2 20 км н/о +11.4 +10.5 94 +10 +10 1011.2 1010.2
16 13.06 Ю 1 18 км н/о +11.5 +10.6 94 +11 +11 1011.3 1010.3
17 13.06 ЮВ 2 13 км н/о +12.0 +11.2 95 +11 +11 1011.0 1010.0
18 13.06 ЮВ 2 8000 м дымка н/о +12.0 +11.4 96 +11 +11 1010.8 1009.8
19 13.06 ЮВ 1 9000 м в посл. час дождь н/о +11.9 +11.3 96 +12 +12 1010.6 1009.6
20 13.06 Ю 1 11 км н/о +12.0 +11.1 94 +12 +12 1010.8 1009.8
21 13.06 ЮВ 1 20 км {дождь} н/о +12.7 +11.3 91 +13 +13 1010.5 1009.5
22 13.06 Ю 2 15 км н/о +13.5 +12.1 91 +13 +13 1010.0 1009.0
23 13.06 ЮВ 3 18 км н/о +16.3 +13.0 81 +16 +16 1010.0 1009.0
00 14.06 ЮЗ 3 20 км {дождь} н/о +18.4 +11.9 66 +19 +19 1009.2 1008.2 +11.1 0.0
01 14.06 В 3 20 км н/о +17.6 +13.1 75 +18 +18 1009.2 1008.2
02 14.06 СВ 2 20 км н/о +14.8 +11.8 82 +15 +15 1009.6 1008.6
03 14.06 С 2 20 км н/о +15.6 +11.8 78 +16 +16 1009.1 1008.1
04 14.06 СВ 3 15 км н/о +14.8 +11.6 81 +14 +14 1009.0 1008.0
05 14.06 СВ 2 17 км н/о +14.5 +11.1 80 +14 +14 1008.7 1007.7
06 14.06 В 2 19 км н/о +14.8 +11.2 79 +15 +15 1008.5 1007.5
07 14.06 СВ 2 18 км н/о +13.8 +11.5 86 +14 +14 1008.7 1007.7
08 14.06 В 2 19 км н/о +13.9 +11.6 86 +14 +14 1008.7 1007.7
09 14.06 СВ 1 16 км н/о +13.8 +12.2 90 +14 +14 1009.2 1008.2
10 14.06 В 2 15 км н/о +14.3 +12.3 88 +14 +14 1009.1 1008.1
11 14.06 В 2 14 км н/о +14.1 +12.3 89 +14 +14 1009.6 1008.6
12 14.06 ЮВ 2 20 км н/о +14.4 +12.1 86 +14 +14 1010.0 1009.0 +19.5
13 14.06 ЮЗ 1 14 км н/о +14.5 +11.8 84 +15 +15 1009.9 1008.9
14 14.06 Ю 2 20 км н/о +14.8 +11.8 82 +14 +14 1009.8 1008.8
15 14.06 Ю 2 15 км н/о +14.7 +11.7 82 +15 +15 1009.8 1008.8
16 14.06 ЮЗ 2 19 км н/о +13.9 +11.1 83 +14 +14 1009.7 1008.7
17 14.06 ЮЗ 2 20 км н/о +13.6 +11.0 84 +13 +13 1010.0 1009.0
18 14.06 ЮЗ 2 20 км н/о +13.6 +10.8 83 +13 +13 1009.7 1008.7
19 14.06 ЮЗ 2 20 км н/о +13.4 +10.8 84 +13 +13 1010.1 1009.1
20 14.06 ЮЗ 2 20 км н/о +13.7 +11.1 84 +13 +13 1009.8 1008.8
21 14.06 З 1 20 км н/о +15.3 +12.1 81 +16 +16 1010.1 1009.1
22 14.06 В 2 20 км н/о +16.5 +11.7 73 +17 +17 1010.2 1009.2
23 14.06 ЮВ 1 20 км н/о +18.0 +11.3 65 +19 +19 1010.1 1009.1
00 15.06 СВ 1 20 км н/о +17.3 +11.4 68 +18 +18 1009.9 1008.9 +13.2
01 15.06 СВ 2 20 км н/о +19.1 +12.1 64 +21 +21 комфорт 1009.7 1008.7
02 15.06 СВ 2 20 км н/о +19.4 +13.4 68 +22 +22 комфорт 1009.4 1008.4
03 15.06 СВ 2 20 км н/о +17.2 +13.1 77 +18 +18 1009.2 1008.2
04 15.06 С 5 15 км н/о +17.4 +14.1 81 +17 +17 1008.8 1007.8
05 15.06 С 6 20 км н/о +15.7 +13.2 85 +14 +14 1008.8 1007.8
06 15.06 С 7 16 км н/о +15.3 +13.0 86 +13 +13 1008.8 1007.8
07 15.06 С 8 16 км н/о +13.6 +12.0 90 +11 +11 1009.2 1008.2
08 15.06 С 7 11 км н/о +12.6 +11.7 94 +10 +10 1009.5 1008.5
09 15.06 С 6 1200 м дымка н/о +11.6 +11.3 98 +9 +9 1009.9 1008.9
10 15.06 С 6 600 м туман н/о +11.5 +11.4 99 +8 +8 1010.3 1009.3
11 15.06 С 5 500 м туман н/о +11.4 +11.4 100 +9 +9 1010.2 1009.2
12 15.06 С 5 1100 м слаб. дождь {туман} н/о +11.5 +11.5 100 +9 +9 1010.4 1009.4 +19.9 0.0
13 15.06 С 5 2700 м слаб. дождь н/о +11.3 +11.2 99 +8 +8 1010.2 1009.2
14 15.06 СЗ 4 6000 м слаб. дождь н/о +11.0 +10.9 99 +8 +8 1009.0 1008.0
15 15.06 С 7 11 км слаб. дождь н/о +11.3 +10.9 97 +8 +8 1008.8 1007.8
16 15.06 С 7 6000 м в посл. час дождь н/о +11.0 +10.7 98 +7 +7 1008.2 1007.2
17 15.06 С 4 2800 м слаб. дождь н/о +10.8 +10.7 99 +8 +8 1007.3 1006.3
18 15.06 С 4 500 м туман {дождь} н/о +11.1 +11.1 100 +8 +8 1006.4 1005.4 2
19 15.06 С 4 2000 м слаб. дождь н/о +11.5 +11.5 100 +9 +9 1005.8 1004.8
20 15.06 СВ 3 2800 м в посл. час дождь н/о +11.7 +11.7 100 +10 +10 1005.3 1004.3
21 15.06 В 7 14 км слаб. дождь {туман} н/о +12.1 +12.0 99 +9 +9 1005.4 1004.4
22 15.06 В 7 4400 м слаб. дождь н/о +12.1 +11.8 98 +9 +9 1005.1 1004.1
23 15.06 В 8 3600 м слаб. дождь н/о +12.0 +11.9 99 +9 +9 1004.1 1003.1
00 16.06 В 8 3100 м слаб. дождь {туман} н/о +11.8 +11.7 99 +8 +8 1003.2 1002.2 +10.8 8
01 16.06 СВ 9 2900 м слаб. дождь н/о +11.7 +11.6 99 +8 +8 1001.9 1000.9
02 16.06 В 9 4300 м слаб. дождь н/о +11.1 +11.0 99 +7 +7 1001.8 1000.8
03 16.06 В 10 6000 м слаб. дождь н/о +11.2 +10.8 97 +7 +7 1000.6 999.6
04 16.06 СВ 10 1900 м слаб. дождь н/о +11.2 +10.9 98 +7 +7 999.7 998.7
05 16.06 СВ 9 1600 м слаб. дождь н/о +11.2 +11.1 99 +7 +7 999.1 998.1
06 16.06 СВ 10 1700 м слаб. дождь н/о +10.8 +10.7 99 +6 +6 998.4 997.4 7
07 16.06 СВ 12 1600 м слаб. дождь н/о +10.6 +10.3 98 +6 +6 997.9 996.9
08 16.06 СВ 11 1700 м слаб. дождь н/о +10.5 +10.4 99 +6 +6 997.8 996.8
09 16.06 СВ 12 1600 м слаб. дождь н/о +9.9 +9.6 98 +5 +5 997.6 996.6
10 16.06 СВ 13 1500 м слаб. дождь н/о +10.1 +10.0 99 +5 +5 997.2 996.2
11 16.06 С 12 1300 м слаб. дождь н/о +9.9 +9.8 99 +5 +5 997.2 996.2
12 16.06 С 12 1400 м слаб. дождь н/о +9.9 +9.8 99 +5 +5 997.1 996.1 +11.8 11
13 16.06 С 12 1500 м слаб. дождь н/о +9.7 +9.4 98 +4 +4 996.4 995.4
14 16.06 С 13 2600 м слаб. дождь н/о +9.4 +9.0 97 +4 +4 996.2 995.2
15 16.06 С 12 1700 м слаб. дождь н/о +8.9 +8.5 97 +3 +3 996.1 995.1
16 16.06 С 12 1600 м слаб. дождь н/о +8.5 +8.1 97 +3 +3 995.7 994.7
17 16.06 С 12 1600 м слаб. дождь н/о +8.1 +7.5 96 +2 +2 996.1 995.1
18 16.06 С 12 1700 м слаб. дождь н/о +8.0 +7.6 97 +2 +2 996.6 995.6 14
19 16.06 С 11 1800 м слаб. дождь н/о +7.9 +7.5 97 +2 +2 997.2 996.2
20 16.06 С 10 2400 м слаб. дождь н/о +8.0 +7.4 96 +3 +3 998.1 997.1
21 16.06 СЗ 8 2700 м слаб. дождь н/о +8.3 +7.4 94 +4 +4 999.2 998.2
22 16.06 СЗ 5 4500 м слаб. дождь н/о +8.9 +7.8 93 +5 +5 999.9 998.9
23 16.06 СЗ 6 10 км слаб. дождь н/о +9.2 +7.5 89 +5 +5 1000.5 999.5
00 17.06 СЗ 6 11 км слаб. дождь н/о +9.3 +7.6 89 +6 +6 1001.1 1000.1 +7.7 20
01 17.06 СЗ 5 20 км в посл. час дождь н/о +10.3 +7.6 83 +7 +7 1001.3 1000.3
02 17.06 СЗ 6 20 км н/о +12.0 +6.7 70 +9 +9 1001.8 1000.8
03 17.06 СЗ 5 20 км {дождь} н/о +12.5 +6.6 67 +10 +10 1002.2 1001.2
04 17.06 СЗ 4 20 км н/о +13.7 +7.7 67 +12 +12 1002.7 1001.7
05 17.06 С 6 11 км н/о +13.0 +8.5 74 +11 +11 1003.4 1002.4
06 17.06 С 5 9000 м дым {дождь} н/о +12.9 +9.0 77 +11 +11 1003.7 1002.7 0.0
07 17.06 С 7 7000 м дымка н/о +12.2 +9.2 82 +9 +9 1004.2 1003.2
08 17.06 З 6 20 км н/о +14.3 +6.4 59 +13 +13 1004.4 1003.4
09 17.06 З 3 20 км н/о +13.3 +6.2 62 +12 +12 1004.8 1003.8
10 17.06 З 5 20 км н/о +11.6 +5.9 68 +9 +9 1005.0 1004.0
11 17.06 З 7 20 км н/о +10.5 +5.1 69 +7 +7 1006.1 1005.1
12 17.06 З 4 20 км н/о +9.5 +4.3 70 +7 +7 1007.2 1006.2 +15.0 0.0
13 17.06 Ю 3 20 км н/о +8.5 +4.7 77 +6 +6 1007.6 1006.6
14 17.06 ЮЗ 3 20 км н/о +8.5 +4.9 78 +6 +6 1008.3 1007.3
15 17.06 З 7 20 км н/о +10.1 +5.3 72 +6 +6 1008.8 1007.8
16 17.06 З 6 20 км н/о +10.4 +5.4 71 +7 +7 1009.0 1008.0
17 17.06 З 5 20 км н/о +9.8 +5.8 76 +7 +7 1009.0 1008.0
18 17.06 З 6 20 км н/о +9.9 +5.5 74 +7 +7 1008.8 1007.8
19 17.06 ЮЗ 5 20 км н/о +9.6 +6.0 78 +7 +7 1008.9 1007.9
20 17.06 ЮЗ 2 20 км н/о +10.4 +5.8 73 +10 +10 1009.3 1008.3
21 17.06 ЮЗ 3 20 км н/о +11.3 +5.8 69 +10 +10 1009.1 1008.1
22 17.06 ЮЗ 7 20 км н/о +11.4 +5.9 69 +8 +8 1008.4 1007.4
23 17.06 ЮЗ 8 20 км н/о +12.7 +5.9 63 +10 +10 1007.9 1006.9
00 18.06 З 8 20 км н/о +16.2 +7.9 58 +15 +15 1007.8 1006.8 +8.4
01 18.06 З 6 20 км н/о +17.4 +9.8 61 +17 +17 1007.6 1006.6
02 18.06 З 7 20 км н/о +17.7 +10.3 62 +17 +17 1007.7 1006.7
03 18.06 ЮЗ 9 20 км н/о +17.1 +10.0 63 +16 +16 1007.2 1006.2
04 18.06 З 7 20 км н/о +18.1 +10.0 59 +18 +18 1007.4 1006.4
05 18.06 З 6 20 км н/о +18.1 +10.5 61 +18 +18 1007.5 1006.5
06 18.06 З 6 20 км н/о +19.3 +11.1 59 +20 +20 1007.1 1006.1
07 18.06 З 6 20 км н/о +19.4 +10.9 58 +20 +20 1006.9 1005.9
08 18.06 ЮЗ 6 20 км н/о +18.5 +10.9 61 +18 +18 1006.8 1005.8
09 18.06 ЮЗ 8 20 км н/о +17.6 +11.2 66 +17 +17 1006.8 1005.8
10 18.06 ЮЗ 3 20 км н/о +16.5 +11.2 71 +16 +16 1007.4 1006.4
11 18.06 Ю 2 20 км н/о +15.8 +11.4 75 +16 +16 1007.9 1006.9
12 18.06 ЮЗ 4 20 км н/о +15.5 +11.7 78 +15 +15 1008.0 1007.0 +19.9
13 18.06 ЮЗ 7 20 км н/о +15.9 +11.7 76 +14 +14 1007.5 1006.5
14 18.06 ЮЗ 7 20 км н/о +16.0 +12.0 77 +14 +14 1007.2 1006.2
15 18.06 З 8 20 км н/о +15.7 +11.3 75 +14 +14 1007.2 1006.2
16 18.06 З 8 20 км н/о +15.6 +11.6 77 +14 +14 1006.8 1005.8
17 18.06 З 7 20 км н/о +15.2 +11.6 79 +13 +13 1006.7 1005.7
18 18.06 З 7 20 км н/о +15.3 +10.9 75 +14 +14 1006.9 1005.9
19 18.06 ЮЗ 5 20 км н/о +14.9 +11.3 79 +13 +13 1007.2 1006.2
20 18.06 ЮЗ 3 20 км н/о +15.4 +11.6 78 +15 +15 1007.6 1006.6
21 18.06 Ю 4 20 км в посл. час дождь н/о +15.4 +11.4 77 +15 +15 1007.8 1006.8
22 18.06 Ю 4 20 км н/о +17.6 +11.2 66 +17 +17 1007.7 1006.7

 

Местоположение метеостанции Китами Сачи (Япония): широта 44.93 долгота 142.58 высота над уровнем моря 8 м.

В архиве по умолчанию представлена погода в Китами Сачи за последнюю неделю. Архивные данные за месяц целиком и за предыдущие месяцы, начиная с января 2011 года, Вы можете получить, выбрав интересующий диапазон дат из раскрывающегося списка и нажав кнопку "Ввод!".


*Определитесь, кто Вы:
робот инопланетянин человек

Внимание! Время в таблицах - всемирное. Для получения местного времени необходимо прибавить поправку, которая равна 9 ч.

Смотрите также архив погоды в соседних городах и на ближайших метеорологических станциях:

Погода в Омурайсу (Япония) (49 км)
Погода в Момбецу (Япония) (89 км)
Погода в Вакканае (Япония) (89 км)
Погода в Хаборо (Япония) (93 км)
Погода на Мысе Крильон (Сахалинская область, Россия) (117 км)
Погода в Асахикаве (Япония) (130 км)
Погода в Румои (Япония) (133 км)
Погода в Абасири (Япония) (169 км)
Погода в Новиково (Сахалинская область, Россия) (171 км)
Погода на Острове Монерон (Сахалинская область, Россия) (182 км)

Пояснения к столбцам:

Ветер - указаны скорость ветра в м/с - средняя за 10 мин, порывы в срок и между сроками (в фигурных скобках) и направление, откуда дует ветер: С - северный, СВ - северо-восточный, В - восточный, ЮВ - юго-восточный, Ю - южный, ЮЗ - юго-западный, З - западный, СЗ - северо-западный.
Видимость - горизонтальная дальность видимости в метрах или километрах. При видимости от 1 до 10 км при отсутствии осадков обычно наблюдается дымка, при ухудшении видимости до 1 км и менее - туман. В сухую погоду видимость может ухудшаться дымом, пылью или мглою.
Явления - указаны атмосферные явления, наблюдавшиеся в срок или в последний час перед сроком; фигурными скобками обозначены явления, наблюдавшиеся между сроками (за 1-3 часа до срока); квадратными скобками обозначены град или гололедные отложения с указанием их диаметра в мм.
Облачность - указаны через наклонную черту общая и нижняя облачность в баллах и высота нижней границы облаков в метрах; квадратными скобками обозначены формы облаков: Ci - перистые, Cs - перисто-слоистые, Cc - перисто-кучевые, Ac - высококучевые, As - высокослоистые, Sc - слоисто-кучевые, Ns - слоисто-дождевые, Cu - кучевые, Cb - кучево-дождевые. Подробнее классификацию облаков см. в Атласе облаков (PDF).
T - Температура воздуха - температура, измеренная на высоте 2 м над землей.
Td - Температура точки росы - температура, при понижении до которой содержащийся в воздухе водяной пар достигнет насыщения.
f - Относительная влажность воздуха - влажноcть воздуха, измеренная на высоте 2 м над землей.
Te - Эффективная температура - температура, которую ощущает одетый по сезону человек в тени. Характеристика душности погоды. При расчете учитывается влияние влажности воздуха и скорости ветра на теплоощущения человека.
Tes - Эффективная температура на солнце - температура, которую ощущает человек, с поправкой на солнечный нагрев. Характеристика знойности погоды. Зависит от высоты солнца над горизонтом, облачности и скорости ветра. Ночью, в пасмурную погоду, а также при ветре 12 м/с и более поправка равна нулю.
P - Атмосферное давление - приведенное к уровню моря атмосферное давление.
Po - Атмосферное давление - измеренное на уровне метеостанции атмосферное давление.
Tmin - Минимальная температура - минимум температуры воздуха на высоте 2 м над землей.
Tmax - Максимальная температура - максимум температуры воздуха на высоте 2 м над землей.
R - Количество осадков - Количество выпавших осадков за период времени, мм. При наведении курсора мыши на число - период времени, за который выпало указанное количество осадков.
R24 - Количество осадков - Количество выпавших осадков за 24 часа, мм.
S - Снежный покров - Высота снежного покрова, см. При наведении курсора мыши на число - состояние снежного покрова и степень покрытия местности в баллах.